TimeCDT,TemperatureF,Dew PointF,Humidity,Sea Level PressureIn,VisibilityMPH,Wind Direction,Wind SpeedMPH,Gust SpeedMPH,PrecipitationIn,Events,Conditions,WindDirDegrees,DateUTC
12:15 AM,57.2,46.4,67,30.32,10.0,ESE,4.6,-,N/A,,Scattered Clouds,110,2013-05-25 05:15:00
12:35 AM,57.4,45.9,65,30.31,10.0,SE,5.8,-,N/A,,Scattered Clouds,140,2013-05-25 05:35:00
12:55 AM,59.0,43.2,56,30.30,10.0,SE,10.4,-,N/A,,Mostly Cloudy,130,2013-05-25 05:55:00
1:15 AM,59.9,42.4,52,30.29,10.0,ESE,11.5,-,N/A,,Overcast,120,2013-05-25 06:15:00
1:35 AM,59.9,42.4,52,30.27,10.0,ESE,12.7,-,N/A,,Mostly Cloudy,110,2013-05-25 06:35:00
1:55 AM,59.2,43.7,57,30.26,10.0,ESE,11.5,-,N/A,,Mostly Cloudy,110,2013-05-25 06:55:00
2:15 AM,59.0,43.2,56,30.26,10.0,SE,10.4,-,N/A,,Overcast,130,2013-05-25 07:15:00
2:35 AM,58.3,43.9,59,30.27,10.0,ESE,9.2,-,N/A,,Overcast,120,2013-05-25 07:35:00
2:55 AM,57.9,43.3,58,30.28,10.0,ESE,8.1,-,N/A,,Overcast,120,2013-05-25 07:55:00
3:15 AM,57.4,43.0,59,30.30,10.0,ESE,5.8,-,N/A,,Overcast,110,2013-05-25 08:15:00
3:35 AM,57.2,43.7,61,30.32,10.0,East,5.8,-,N/A,,Overcast,80,2013-05-25 08:35:00
3:55 AM,56.7,43.9,62,30.32,10.0,East,6.9,-,N/A,Rain,Light Rain,80,2013-05-25 08:55:00
4:15 AM,55.9,44.4,65,30.33,10.0,ENE,8.1,-,N/A,,Overcast,70,2013-05-25 09:15:00
4:35 AM,55.8,42.6,61,30.34,10.0,East,9.2,-,N/A,,Overcast,90,2013-05-25 09:35:00
4:55 AM,55.9,41.7,59,30.33,10.0,East,8.1,-,N/A,,Overcast,100,2013-05-25 09:55:00
5:15 AM,55.8,41.7,59,30.34,10.0,ESE,5.8,-,N/A,,Overcast,110,2013-05-25 10:15:00
5:35 AM,55.8,41.5,59,30.36,10.0,ESE,5.8,-,N/A,,Overcast,110,2013-05-25 10:35:00
5:55 AM,55.4,42.8,63,30.35,10.0,SE,8.1,-,N/A,Rain,Light Rain,140,2013-05-25 10:55:00
6:15 AM,54.9,43.7,66,30.35,10.0,SE,6.9,-,N/A,Rain,Light Rain,130,2013-05-25 11:15:00
6:35 AM,54.7,44.2,68,30.34,10.0,East,11.5,-,N/A,,Overcast,90,2013-05-25 11:35:00
6:55 AM,54.9,43.7,66,30.33,10.0,ESE,10.4,-,N/A,,Overcast,120,2013-05-25 11:55:00
7:15 AM,54.7,43.0,65,30.34,10.0,ESE,8.1,-,N/A,,Overcast,120,2013-05-25 12:15:00
7:35 AM,55.0,42.8,63,30.34,10.0,ESE,12.7,-,N/A,,Overcast,110,2013-05-25 12:35:00
7:55 AM,55.2,42.8,63,30.33,10.0,ESE,11.5,-,N/A,,Overcast,120,2013-05-25 12:55:00
8:15 AM,55.4,42.4,62,30.33,10.0,SE,13.8,-,N/A,,Overcast,130,2013-05-25 13:15:00
8:35 AM,55.4,43.3,64,30.34,10.0,SE,9.2,-,N/A,Rain,Light Rain,130,2013-05-25 13:35:00
8:55 AM,54.7,44.8,69,30.34,10.0,SE,9.2,-,N/A,Rain,Light Rain,130,2013-05-25 13:55:00
9:15 AM,54.0,45.5,73,30.35,10.0,SE,8.1,-,N/A,Rain,Light Rain,130,2013-05-25 14:15:00
9:35 AM,53.2,46.0,77,30.34,7.0,ESE,8.1,-,N/A,Rain,Rain,120,2013-05-25 14:35:00
9:55 AM,52.9,46.9,80,30.35,7.0,ESE,8.1,-,N/A,Rain,Light Rain,120,2013-05-25 14:55:00
10:15 AM,52.9,46.9,80,30.39,7.0,East,3.5,-,N/A,Rain,Light Rain,100,2013-05-25 15:15:00
10:35 AM,52.7,46.9,81,30.42,1.8,Calm,Calm,-,N/A,Rain-Thunderstorm,Thunderstorms and Rain,0,2013-05-25 15:35:00
10:55 AM,52.3,47.8,85,30.42,2.5,ENE,4.6,-,N/A,Rain,Rain,60,2013-05-25 15:55:00
11:15 AM,52.0,49.1,90,30.40,2.5,East,8.1,-,N/A,Rain-Thunderstorm,Heavy Thunderstorms and Rain,80,2013-05-25 16:15:00
11:35 AM,50.4,49.1,95,30.38,4.0,East,9.2,-,N/A,Rain-Thunderstorm,Rain,100,2013-05-25 16:35:00
11:55 AM,50.5,49.6,97,30.35,5.0,SE,12.7,-,N/A,Rain-Thunderstorm,Rain,130,2013-05-25 16:55:00
12:15 PM,50.9,50.0,97,30.30,7.0,SE,18.4,23.0,N/A,Rain-Thunderstorm,Rain,130,2013-05-25 17:15:00
12:35 PM,51.3,50.5,97,30.30,10.0,SE,16.1,25.3,N/A,Rain,Light Rain,130,2013-05-25 17:35:00
12:55 PM,51.6,50.9,97,30.35,10.0,East,5.8,-,N/A,Rain-Thunderstorm,Light Thunderstorms and Rain,90,2013-05-25 17:55:00
1:15 PM,51.8,50.9,97,30.31,5.0,East,11.5,-,N/A,Rain-Thunderstorm,Rain,100,2013-05-25 18:15:00
1:35 PM,52.2,51.4,97,30.31,5.0,SE,10.4,-,N/A,Rain,Light Rain,140,2013-05-25 18:35:00
1:55 PM,52.5,51.8,97,30.25,10.0,SE,17.3,-,N/A,Rain,Light Rain,130,2013-05-25 18:55:00
2:15 PM,52.7,52.0,97,30.26,10.0,SSE,12.7,-,N/A,,Overcast,150,2013-05-25 19:15:00
2:35 PM,54.3,53.6,97,30.25,10.0,SSE,13.8,-,N/A,,Overcast,150,2013-05-25 19:35:00
2:55 PM,55.0,54.3,97,30.25,10.0,SSE,15.0,20.7,N/A,,Overcast,150,2013-05-25 19:55:00
3:15 PM,54.9,54.1,97,30.25,10.0,SSE,12.7,-,N/A,,Overcast,150,2013-05-25 20:15:00
3:35 PM,55.4,54.7,97,30.25,10.0,SE,12.7,-,N/A,,Overcast,140,2013-05-25 20:35:00
3:55 PM,57.2,53.8,88,30.25,10.0,SE,11.5,-,N/A,,Overcast,130,2013-05-25 20:55:00
4:15 PM,57.2,52.3,84,30.26,10.0,East,10.4,-,N/A,,Overcast,80,2013-05-25 21:15:00
4:35 PM,56.8,52.7,86,30.26,10.0,East,12.7,-,N/A,,Overcast,80,2013-05-25 21:35:00
4:55 PM,56.5,52.2,85,30.26,10.0,East,12.7,-,N/A,,Overcast,80,2013-05-25 21:55:00
5:15 PM,56.3,51.4,84,30.26,10.0,East,13.8,-,N/A,,Overcast,80,2013-05-25 22:15:00
5:35 PM,56.3,51.6,84,30.26,10.0,East,12.7,-,N/A,,Overcast,80,2013-05-25 22:35:00
5:55 PM,56.1,51.8,85,30.26,10.0,East,12.7,-,N/A,,Overcast,80,2013-05-25 22:55:00
6:15 PM,55.9,51.8,86,30.26,10.0,East,12.7,-,N/A,,Overcast,80,2013-05-25 23:15:00
6:35 PM,55.8,52.2,88,30.25,10.0,East,16.1,-,N/A,,Overcast,90,2013-05-25 23:35:00
6:55 PM,55.6,52.3,89,30.26,10.0,East,13.8,-,N/A,,Overcast,80,2013-05-25 23:55:00
7:15 PM,55.4,52.0,88,30.25,10.0,East,13.8,-,N/A,,Overcast,90,2013-05-26 00:15:00
7:35 PM,55.4,51.4,87,30.25,10.0,East,12.7,-,N/A,,Overcast,100,2013-05-26 00:35:00
7:55 PM,55.4,51.6,87,30.25,10.0,East,10.4,-,N/A,,Overcast,100,2013-05-26 00:55:00
8:15 PM,55.4,51.6,87,30.25,10.0,East,12.7,-,N/A,,Overcast,100,2013-05-26 01:15:00
8:35 PM,55.4,51.8,88,30.25,10.0,East,11.5,-,N/A,,Overcast,100,2013-05-26 01:35:00
8:55 PM,55.8,51.8,87,30.24,10.0,East,11.5,-,N/A,,Overcast,100,2013-05-26 01:55:00
9:15 PM,55.8,51.6,86,30.25,10.0,East,12.7,-,N/A,,Overcast,100,2013-05-26 02:15:00
9:35 PM,55.9,51.3,84,30.25,10.0,East,12.7,-,N/A,,Overcast,100,2013-05-26 02:35:00
9:55 PM,55.9,51.1,84,30.25,10.0,East,13.8,-,N/A,,Overcast,100,2013-05-26 02:55:00
10:15 PM,55.8,50.9,84,30.26,10.0,East,11.5,-,N/A,,Overcast,100,2013-05-26 03:15:00
10:35 PM,55.8,50.9,84,30.26,10.0,East,15.0,-,N/A,,Overcast,100,2013-05-26 03:35:00
10:55 PM,55.6,50.9,84,30.26,10.0,East,15.0,-,N/A,,Overcast,100,2013-05-26 03:55:00
11:15 PM,55.4,50.5,84,30.26,10.0,East,16.1,19.6,N/A,,Overcast,100,2013-05-26 04:15:00
11:35 PM,55.4,50.5,84,30.26,10.0,East,11.5,-,N/A,,Overcast,100,2013-05-26 04:35:00
11:55 PM,55.4,49.8,81,30.26,10.0,ESE,13.8,-,N/A,,Overcast,110,2013-05-26 04:55:00